�N����,����,�~����,�C��,���x,�C��,����,���ϕ���,�ő�u�ԕ���,�ő厞����,���˗�,�I�_���x,�n�����x,�ő啗���N��,DTYPE
"23/09/02","00:10",0.0,25.0,81.6,1007.6,341.2,1.2,2.1,332.2,0.00,21.7,26.1,"00:06:00",1
"23/09/02","00:20",0.0,25.0,81.7,1007.8,343.0,0.8,1.6,347.9,0.00,21.7,26.1,"00:12:56",1
"23/09/02","00:30",0.0,24.8,82.1,1007.8,70.0,0.5,1.1,107.9,0.00,21.6,26.2,"00:28:56",1
"23/09/02","00:40",0.0,24.5,82.7,1007.8,353.8,0.5,1.1,4.0,0.00,21.4,26.0,"00:33:28",1
"23/09/02","00:50",0.0,24.2,83.4,1007.8,328.4,0.5,1.2,313.9,0.00,21.2,26.2,"00:43:04",1
"23/09/02","01:00",0.0,23.9,83.9,1007.8,336.0,0.5,1.0,321.5,0.00,21.1,25.9,"00:54:00",1
"23/09/02","01:10",0.0,23.6,84.6,1007.6,293.6,0.6,1.0,270.8,0.00,20.9,26.1,"01:06:32",1
"23/09/02","01:20",0.0,23.7,85.4,1007.6,316.9,0.8,1.2,335.1,0.00,21.1,25.9,"01:17:36",1
"23/09/02","01:30",0.0,23.6,86.2,1007.6,317.5,1.1,1.7,315.4,0.00,21.2,26.0,"01:28:48",1
"23/09/02","01:40",0.0,23.6,86.6,1007.6,314.4,0.8,1.2,335.6,0.00,21.3,26.0,"01:30:16",1
"23/09/02","01:50",0.0,23.6,87.0,1008.3,313.5,1.1,1.8,305.3,0.00,21.3,25.7,"01:41:52",1
"23/09/02","02:00",0.0,23.7,87.2,1007.8,303.6,1.0,1.4,328.7,0.00,21.5,25.8,"01:52:40",1
"23/09/02","02:10",0.0,23.8,87.2,1007.8,308.2,1.0,1.7,318.8,0.00,21.6,25.9,"02:07:52",1
"23/09/02","02:20",0.0,24.0,87.1,1007.8,309.3,0.8,1.7,326.7,0.00,21.8,25.7,"02:16:16",1
"23/09/02","02:30",0.0,24.0,86.9,1007.6,303.3,0.8,1.7,270.0,0.00,21.7,25.7,"02:26:16",1
"23/09/02","02:40",0.0,23.9,86.7,1007.6,312.8,0.7,1.3,331.9,0.00,21.6,25.6,"02:31:20",1
"23/09/02","02:50",0.0,23.9,86.6,1007.6,310.3,0.8,1.4,330.2,0.00,21.6,25.7,"02:44:00",1
"23/09/02","03:00",0.0,23.9,86.6,1007.1,306.3,0.6,1.1,332.9,0.00,21.6,25.8,"02:59:44",1
"23/09/02","03:10",0.0,24.1,86.6,1007.1,342.6,0.6,1.0,341.7,0.00,21.8,25.6,"03:00:24",1
"23/09/02","03:20",0.0,24.1,86.9,1007.1,344.5,0.8,1.3,350.0,0.00,21.8,25.8,"03:17:36",1
"23/09/02","03:30",0.0,23.8,87.2,1007.1,298.8,0.6,1.1,310.7,0.00,21.6,25.5,"03:29:36",1
"23/09/02","03:40",0.0,23.6,87.5,1007.1,296.9,1.0,1.4,330.3,0.00,21.4,25.7,"03:30:16",1
"23/09/02","03:50",0.0,23.6,87.7,1007.6,307.4,1.0,1.3,317.4,0.00,21.5,25.7,"03:44:16",1
"23/09/02","04:00",0.0,23.5,87.9,1007.1,326.1,1.0,1.6,312.2,0.00,21.4,25.6,"03:50:32",1
"23/09/02","04:10",0.0,23.3,88.0,1007.1,297.3,0.8,1.1,321.0,0.00,21.2,25.5,"04:01:12",1
"23/09/02","04:20",0.0,23.2,88.4,1007.1,293.3,1.0,1.6,306.8,0.00,21.2,25.5,"04:15:52",1
"23/09/02","04:30",0.0,23.2,88.6,1007.4,287.5,0.8,1.3,296.5,0.00,21.3,25.5,"04:27:20",1
"23/09/02","04:40",0.0,23.0,88.7,1007.1,307.2,1.0,1.2,318.9,0.00,21.1,25.4,"04:38:40",1
"23/09/02","04:50",0.0,22.8,89.0,1007.4,318.4,1.1,1.3,320.3,0.00,20.9,25.2,"04:41:04",1
"23/09/02","05:00",0.0,22.6,89.3,1007.1,323.5,1.1,1.9,320.1,0.00,20.8,25.4,"04:54:48",1
"23/09/02","05:10",0.0,22.5,89.8,1007.4,299.4,0.7,1.4,321.3,0.00,20.8,25.4,"05:09:12",1
"23/09/02","05:20",0.0,22.6,90.1,1007.4,309.7,1.2,1.8,323.3,0.00,20.9,25.3,"05:17:44",1
"23/09/02","05:30",0.0,22.5,90.3,1007.1,304.0,0.6,1.7,326.3,0.00,20.9,25.2,"05:28:56",1
"23/09/02","05:40",0.0,22.6,90.6,1007.4,314.1,1.2,1.8,319.8,0.00,21.0,25.4,"05:34:00",1
"23/09/02","05:50",0.0,22.7,90.9,1007.6,313.9,1.1,1.7,333.9,0.00,21.2,25.2,"05:48:48",1
"23/09/02","06:00",0.0,22.8,91.0,1007.8,321.4,1.2,1.9,319.7,0.00,21.3,25.2,"05:52:16",1
"23/09/02","06:10",0.0,23.0,91.2,1007.8,282.4,0.7,1.3,262.3,0.00,21.5,25.1,"06:08:00",1
"23/09/02","06:20",0.0,23.2,91.3,1007.6,303.1,0.7,1.2,330.2,0.01,21.7,24.9,"06:19:12",1
"23/09/02","06:30",0.0,23.8,91.3,1007.6,292.3,0.6,1.1,347.2,0.03,22.3,25.2,"06:21:36",1
"23/09/02","06:40",0.0,24.3,91.1,1008.1,283.1,0.6,1.2,250.2,0.04,22.8,24.9,"06:35:20",1
"23/09/02","06:50",0.0,25.1,90.9,1007.8,332.8,0.6,1.1,330.9,0.05,23.5,24.9,"06:44:48",1
"23/09/02","07:00",0.0,25.6,89.7,1007.8,357.4,0.6,1.3,339.3,0.07,23.8,24.9,"06:50:08",1
"23/09/02","07:10",0.0,26.3,88.2,1007.6,320.4,0.1,0.6,330.2,0.10,24.2,25.1,"07:00:24",1
"23/09/02","07:20",0.0,26.6,87.2,1007.4,336.1,0.5,1.4,353.6,0.11,24.3,25.1,"07:17:20",1
"23/09/02","07:30",0.0,27.0,85.3,1007.1,347.3,0.5,1.1,342.2,0.12,24.4,25.1,"07:22:40",1
"23/09/02","07:40",0.0,27.5,82.1,1006.4,0.0,0.5,1.2,343.1,0.16,24.2,25.2,"07:33:36",1
"23/09/02","07:50",0.0,28.0,79.2,1006.9,139.3,0.5,1.4,116.6,0.13,24.1,25.2,"07:44:56",1
"23/09/02","08:00",0.0,28.2,77.6,1006.9,112.3,0.2,0.8,220.5,0.11,24.0,25.1,"07:53:12",1
"23/09/02","08:10",0.0,28.4,76.1,1007.1,15.0,0.5,1.2,352.4,0.14,23.8,25.1,"08:09:44",1
"23/09/02","08:20",0.0,28.5,74.8,1007.4,10.3,0.5,1.2,7.0,0.12,23.6,25.2,"08:15:12",1
"23/09/02","08:30",0.0,28.4,74.9,1007.6,326.0,0.5,1.2,353.0,0.13,23.6,25.2,"08:22:48",1
"23/09/02","08:40",0.0,28.6,75.2,1007.4,335.5,0.6,1.3,15.2,0.20,23.8,25.0,"08:33:20",1
"23/09/02","08:50",0.0,29.2,73.1,1007.6,3.3,0.7,1.9,30.8,0.28,23.9,25.3,"08:49:12",1
"23/09/02","09:00",0.0,29.8,71.3,1008.1,89.7,0.6,1.6,33.4,0.28,24.1,25.6,"08:51:28",1
"23/09/02","09:10",0.0,29.7,69.8,1008.1,314.0,0.5,1.3,0.7,0.17,23.6,25.4,"09:03:36",1
"23/09/02","09:20",0.0,29.5,70.0,1008.3,16.5,0.6,1.7,28.3,0.19,23.5,25.3,"09:18:32",1
"23/09/02","09:30",0.0,29.9,69.0,1008.1,48.3,0.6,1.4,51.5,0.20,23.6,25.3,"09:25:28",1
"23/09/02","09:40",0.0,30.2,69.2,1008.1,3.8,0.6,1.9,354.2,0.26,24.0,25.6,"09:32:08",1
"23/09/02","09:50",0.0,30.6,66.2,1008.6,54.6,0.6,1.6,352.2,0.34,23.6,25.3,"09:45:20",1
"23/09/02","10:00",0.0,30.8,65.3,1008.6,335.0,0.8,1.8,331.7,0.36,23.6,25.5,"09:53:04",1
"23/09/02","10:10",0.0,31.1,65.8,1008.8,40.2,0.8,2.5,14.6,0.30,24.0,25.5,"10:06:08",1
"23/09/02","10:20",0.0,31.4,65.3,1008.8,288.5,0.5,1.3,2.6,0.35,24.1,25.7,"10:18:08",1
"23/09/02","10:30",0.0,31.3,62.9,1008.8,314.1,0.8,2.2,11.7,0.40,23.4,25.7,"10:29:44",1
"23/09/02","10:40",0.0,32.0,60.0,1009.0,82.7,0.8,2.2,327.3,0.47,23.3,25.7,"10:34:48",1
"23/09/02","10:50",0.0,31.8,57.8,1009.0,160.3,1.1,2.5,141.0,0.42,22.5,25.9,"10:44:08",1
"23/09/02","11:00",0.0,32.6,57.6,1009.0,146.3,0.6,1.7,55.6,0.40,23.2,26.0,"10:58:40",1
"23/09/02","11:10",0.0,33.3,56.7,1009.5,64.9,0.7,2.5,349.7,0.45,23.6,25.8,"11:02:40",1
"23/09/02","11:20",0.0,32.9,52.2,1009.0,26.4,1.1,2.1,38.7,0.38,21.8,26.0,"11:10:40",1
"23/09/02","11:30",0.0,32.7,52.5,1009.0,85.0,1.0,2.5,55.9,0.40,21.8,26.1,"11:21:52",1
"23/09/02","11:40",0.0,33.3,52.4,1008.8,116.1,0.6,1.9,127.3,0.39,22.3,26.0,"11:34:24",1
"23/09/02","11:50",0.0,33.7,51.8,1008.6,334.1,0.7,1.8,5.0,0.36,22.5,26.2,"11:41:04",1
"23/09/02","12:00",0.0,33.1,50.3,1008.6,9.1,1.0,2.2,356.6,0.29,21.4,26.1,"11:51:36",1
"23/09/02","12:10",0.0,32.9,52.3,1008.6,358.6,0.8,2.2,345.4,0.24,21.9,26.3,"12:02:24",1
"23/09/02","12:20",0.0,32.7,50.7,1008.3,16.4,1.2,2.5,7.6,0.24,21.2,26.4,"12:18:48",1
"23/09/02","12:30",0.0,32.6,52.1,1007.8,351.2,1.0,2.2,350.1,0.21,21.5,26.2,"12:24:32",1
"23/09/02","12:40",0.0,32.6,52.8,1007.6,353.6,0.6,1.9,349.9,0.22,21.8,26.2,"12:34:24",1
"23/09/02","12:50",0.0,32.5,50.8,1007.6,352.4,0.5,1.8,353.6,0.20,21.0,26.4,"12:43:44",1
"23/09/02","13:00",0.0,32.5,52.8,1007.4,353.8,0.7,1.7,4.4,0.19,21.7,26.6,"12:56:08",1
"23/09/02","13:10",0.0,32.5,55.0,1007.1,356.0,0.8,2.2,338.2,0.19,22.3,26.3,"13:00:08",1
"23/09/02","13:20",0.0,32.2,55.1,1006.9,339.9,0.7,2.5,351.9,0.18,22.1,26.5,"13:12:24",1
"23/09/02","13:30",0.0,32.2,53.3,1006.9,344.8,0.7,1.8,355.7,0.17,21.5,26.5,"13:20:48",1
"23/09/02","13:40",0.0,32.1,54.3,1006.9,292.2,0.6,2.0,337.4,0.17,21.8,26.4,"13:38:00",1
"23/09/02","13:50",0.0,31.8,56.1,1006.9,318.2,1.0,2.6,355.3,0.18,22.0,26.5,"13:48:24",1
"23/09/02","14:00",0.0,31.8,56.4,1006.7,326.4,1.0,2.8,350.8,0.18,22.1,26.4,"13:54:24",1
"23/09/02","14:10",0.0,31.8,54.8,1006.4,301.9,0.8,2.1,249.0,0.19,21.6,26.4,"14:04:48",1
"23/09/02","14:20",0.0,32.0,56.3,1006.9,296.0,0.8,2.4,352.2,0.19,22.3,26.7,"14:15:36",1
"23/09/02","14:30",0.0,31.9,56.6,1006.4,305.4,1.0,2.9,322.5,0.16,22.2,26.4,"14:24:40",1
"23/09/02","14:40",0.0,31.9,57.3,1006.4,330.5,0.8,3.1,0.6,0.15,22.4,26.7,"14:37:20",1
"23/09/02","14:50",0.0,31.8,56.8,1006.4,348.3,1.0,2.5,337.0,0.15,22.2,26.7,"14:45:36",1
"23/09/02","15:00",0.0,31.9,57.6,1006.2,340.1,1.0,2.8,331.6,0.15,22.5,26.7,"14:59:44",1
"23/09/02","15:10",0.0,31.7,59.8,1006.0,321.7,1.0,3.3,344.7,0.14,23.0,26.5,"15:02:56",1
"23/09/02","15:20",0.0,31.6,59.9,1006.0,298.6,0.8,2.7,233.9,0.13,22.9,26.7,"15:13:36",1
"23/09/02","15:30",0.0,31.5,60.7,1006.0,334.1,1.1,2.5,342.7,0.12,23.0,26.6,"15:29:28",1
"23/09/02","15:40",0.0,31.4,61.5,1006.2,307.7,0.8,2.1,325.2,0.11,23.1,26.6,"15:38:48",1
"23/09/02","15:50",0.0,31.2,62.7,1006.0,335.2,1.3,2.6,345.4,0.10,23.3,26.8,"15:43:28",1
"23/09/02","16:00",0.0,31.1,63.4,1005.7,334.8,1.1,2.1,335.4,0.09,23.4,26.6,"15:52:40",1
"23/09/02","16:10",0.0,31.2,64.0,1005.5,343.4,0.6,1.4,335.6,0.08,23.6,26.7,"16:02:40",1
"23/09/02","16:20",0.0,30.9,64.2,1005.5,343.8,1.1,2.4,334.4,0.07,23.4,26.7,"16:15:44",1
"23/09/02","16:30",0.0,30.7,64.1,1005.5,352.7,1.2,2.2,4.3,0.07,23.2,26.7,"16:27:36",1
"23/09/02","16:40",0.0,30.7,64.7,1005.2,351.8,1.0,2.1,350.1,0.07,23.3,26.7,"16:39:52",1
"23/09/02","16:50",0.0,30.5,65.6,1005.5,344.1,0.8,1.7,350.3,0.06,23.4,26.6,"16:41:20",1
"23/09/02","17:00",0.0,30.2,65.9,1005.5,345.7,1.2,2.2,337.0,0.05,23.2,26.6,"16:50:24",1
"23/09/02","17:10",0.0,30.1,66.7,1005.0,350.7,1.1,2.2,345.3,0.03,23.3,26.5,"17:08:00",1
"23/09/02","17:20",0.0,29.9,67.3,1005.0,340.5,0.8,1.7,6.0,0.03,23.2,26.5,"17:14:16",1
"23/09/02","17:30",0.0,29.9,68.1,1004.8,323.8,0.7,1.7,330.9,0.03,23.4,26.7,"17:22:48",1
"23/09/02","17:40",0.0,29.7,69.0,1004.8,347.3,0.7,2.0,351.9,0.02,23.4,26.7,"17:39:20",1
"23/09/02","17:50",0.0,29.3,70.6,1004.8,340.4,0.8,1.7,346.5,0.01,23.4,26.6,"17:42:48",1
"23/09/02","18:00",0.0,29.0,71.9,1004.8,335.2,0.6,1.2,296.9,0.00,23.5,26.7,"17:50:40",1
"23/09/02","18:10",0.0,28.7,73.0,1004.5,332.0,0.8,2.0,335.3,0.00,23.4,26.7,"18:06:32",1
"23/09/02","18:20",0.0,28.5,73.9,1005.2,318.1,0.7,1.3,256.9,0.00,23.4,26.5,"18:11:52",1
"23/09/02","18:30",0.0,28.0,74.9,1005.0,336.0,0.8,1.8,325.6,0.00,23.2,26.2,"18:26:56",1
"23/09/02","18:40",0.0,27.7,76.8,1005.5,340.3,1.1,1.8,335.0,0.00,23.3,26.3,"18:35:52",1
"23/09/02","18:50",0.0,27.3,78.0,1005.2,336.6,1.2,2.5,345.5,0.00,23.2,26.5,"18:44:16",1
"23/09/02","19:00",0.0,27.0,78.4,1005.5,317.3,1.1,1.9,327.3,0.00,23.0,26.6,"18:59:44",1
"23/09/02","19:10",0.0,27.0,78.5,1005.7,298.7,0.8,1.4,304.3,0.00,23.0,26.3,"19:00:08",1
"23/09/02","19:20",0.0,26.7,78.7,1005.5,309.3,1.1,1.9,338.4,0.00,22.7,26.3,"19:19:36",1
"23/09/02","19:30",0.0,26.7,78.8,1006.0,312.8,1.3,2.0,338.8,0.00,22.8,26.2,"19:26:00",1
"23/09/02","19:40",0.0,26.7,79.2,1006.4,309.9,0.8,2.4,321.9,0.00,22.8,26.3,"19:37:36",1
"23/09/02","19:50",0.0,26.6,79.8,1006.4,330.2,0.7,2.0,341.1,0.00,22.9,26.2,"19:49:44",1
"23/09/02","20:00",0.0,26.5,80.6,1006.7,339.0,1.3,2.7,342.6,0.00,22.9,26.3,"19:57:52",1
"23/09/02","20:10",0.0,26.4,81.1,1006.4,302.5,1.3,2.9,311.8,0.00,22.9,26.3,"20:00:56",1
"23/09/02","20:20",0.0,26.3,81.3,1006.9,316.4,0.8,1.8,313.8,0.00,22.9,26.4,"20:12:32",1
"23/09/02","20:30",0.0,26.1,81.3,1006.9,323.5,1.0,1.8,314.4,0.00,22.7,26.0,"20:23:52",1
"23/09/02","20:40",0.0,26.0,81.7,1007.1,293.3,0.7,1.7,303.2,0.00,22.7,26.2,"20:36:24",1
"23/09/02","20:50",0.0,25.9,82.2,1006.9,289.8,0.8,1.4,279.9,0.00,22.7,26.2,"20:43:12",1
"23/09/02","21:00",0.0,26.0,82.6,1006.9,305.5,1.1,2.0,330.1,0.00,22.8,26.2,"20:59:44",1
"23/09/02","21:10",0.0,25.9,82.8,1006.7,301.5,1.3,2.2,338.7,0.00,22.8,26.0,"21:07:32",1
"23/09/02","21:20",0.0,25.9,82.8,1007.1,311.7,1.1,2.1,322.9,0.00,22.8,26.0,"21:15:20",1
"23/09/02","21:30",0.0,25.8,82.9,1006.9,279.3,0.8,2.1,331.9,0.00,22.7,26.1,"21:29:12",1
"23/09/02","21:40",0.0,25.8,83.0,1007.1,312.0,1.0,2.2,336.3,0.00,22.7,26.0,"21:33:04",1
"23/09/02","21:50",0.0,25.5,83.2,1007.1,294.7,0.3,0.9,319.1,0.00,22.5,25.8,"21:49:44",1
"23/09/02","22:00",0.0,25.4,84.0,1006.9,323.6,0.8,1.3,344.3,0.00,22.5,26.2,"21:59:12",1
"23/09/02","22:10",0.0,25.2,84.6,1007.1,330.3,0.7,1.2,0.3,0.00,22.5,25.8,"22:02:08",1
"23/09/02","22:20",0.0,25.2,85.3,1007.4,307.5,1.0,2.0,301.9,0.00,22.6,25.9,"22:12:48",1
"23/09/02","22:30",0.0,25.3,85.5,1006.9,307.0,0.8,1.2,328.3,0.00,22.7,26.1,"22:22:32",1
"23/09/02","22:40",0.0,25.2,85.6,1006.9,319.0,1.0,1.4,311.1,0.00,22.7,25.9,"22:33:36",1
"23/09/02","22:50",0.0,25.2,85.8,1007.1,338.9,1.0,1.7,328.7,0.00,22.7,25.9,"22:49:44",1
"23/09/02","23:00",0.0,25.2,85.8,1007.4,328.6,1.6,2.6,340.6,0.00,22.7,25.9,"22:58:56",1
"23/09/02","23:10",0.0,25.4,85.4,1006.9,337.3,2.0,3.4,332.0,0.00,22.8,25.9,"23:04:32",1
"23/09/02","23:20",0.0,25.5,85.0,1007.1,334.2,1.7,2.5,329.6,0.00,22.8,25.6,"23:17:20",1
"23/09/02","23:30",0.0,25.4,84.8,1007.1,312.9,1.5,2.4,324.0,0.00,22.7,25.9,"23:21:36",1
"23/09/02","23:40",0.0,25.4,84.7,1007.1,301.2,1.2,2.1,333.7,0.00,22.7,25.9,"23:34:56",1
"23/09/02","23:50",0.0,25.4,84.5,1006.9,300.9,1.2,2.4,333.3,0.00,22.6,25.9,"23:41:12",1
"23/09/02","24:00",0.0,25.6,84.1,1007.1,336.5,1.7,3.1,342.0,0.00,22.8,25.8,"23:56:56",1
